Location: Nairn
(57.5833°N, 3.8667°W)
Time: 16:37:34
(UTC+00:00)

N. Korean satellite - Visible Passes

Search period start: 03 December 2022 00:00
Search period end: 13 December 2022 00:00
Orbit: 421 x 453 km, 97.3° (Epoch: 02 December)

Date Brightness Start Highest point End Pass type
(mag) Time Alt. Az. Time Alt. Az. Time Alt. Az.
03 Dec 7.0 05:38:39 10° NNE 05:42:04 57° ESE 05:45:25 10° S visible
03 Dec 7.8 07:11:47 10° NNW 07:14:16 19° WNW 07:16:44 10° WSW visible
03 Dec 9.7 17:50:14 10° WSW 17:52:06 14° W 17:54:00 10° NW visible
04 Dec 8.8 05:00:10 10° NE 05:03:00 24° E 05:05:50 10° SSE visible
04 Dec 6.8 06:32:25 10° N 06:35:40 39° WNW 06:38:52 10° SW visible
04 Dec 8.5 17:09:49 10° SSW 17:12:54 31° W 17:16:01 10° NNW visible
05 Dec 10.0 04:22:56 10° ENE 04:23:43 11° E 04:24:29 10° E visible
05 Dec 6.4 05:53:23 10° NNE 05:56:50 82° ESE 06:00:14 10° SSW visible
05 Dec 8.1 07:26:53 10° NNW 07:28:52 15° NW 07:30:51 10° W visible
05 Dec 6.6 16:30:27 10° SSE 16:33:51 80° WSW 16:37:19 10° NNW visible
05 Dec 10.1 18:06:28 10° W 18:07:00 10° W 18:07:32 10° WNW visible
06 Dec 8.2 05:14:39 10° NNE 05:17:47 32° E 05:20:53 10° SSE visible
06 Dec 7.2 06:47:15 10° N 06:50:16 29° WNW 06:53:15 10° SW visible
06 Dec 9.1 17:24:52 10° SSW 17:27:38 23° W 17:30:28 10° NW visible
07 Dec 9.6 04:36:34 10° NE 04:38:30 14° E 04:40:26 10° ESE visible
07 Dec 6.2 06:08:01 10° N 06:11:27 70° WNW 06:14:49 10° SSW visible
07 Dec 8.4 07:42:07 10° NNW 07:43:19 11° NW 07:44:31 10° WNW visible
07 Dec 7.2 16:45:07 10° S 16:48:29 55° W 16:51:52 10° NNW visible
08 Dec 7.5 05:29:06 10° NNE 05:32:24 45° E 05:35:39 10° S visible
08 Dec 7.6 07:01:59 10° N 07:04:42 22° WNW 07:07:24 10° WSW visible
08 Dec 9.6 17:39:56 10° SW 17:42:17 17° W 17:44:38 10° NW visible
09 Dec 9.2 04:50:35 10° NE 04:53:07 19° E 04:55:37 10° SE visible
09 Dec 6.5 06:22:33 10° N 06:25:53 49° WNW 06:29:09 10° SW visible
09 Dec 8.0 16:59:44 10° S 17:02:57 39° W 17:06:13 10° NNW visible
10 Dec 6.8 05:43:26 10° NNE 05:46:50 64° ESE 05:50:11 10° S visible
10 Dec 7.9 07:16:39 10° NNW 07:18:58 17° WNW 07:21:17 10° W visible
10 Dec 6.4 16:20:23 10° SSE 16:23:48 81° ENE 16:27:15 10° NNW visible
10 Dec 9.8 17:55:10 10° WSW 17:56:48 13° W 17:58:27 10° WNW visible
11 Dec 8.6 05:04:40 10° NE 05:07:34 25° E 05:10:25 10° SSE visible
11 Dec 6.9 06:37:00 10° N 06:40:09 36° WNW 06:43:16 10° SW visible
11 Dec 8.7 17:14:19 10° SSW 17:17:20 29° W 17:20:22 10° NNW visible
12 Dec 9.8 04:26:54 10° ENE 04:28:03 11° E 04:29:10 10° ESE visible
12 Dec 6.3 05:57:42 10° NNE 06:01:07 90° NNE 06:04:28 10° SSW visible
12 Dec 8.2 07:31:20 10° NNW 07:33:05 14° NW 07:34:50 10° W visible
12 Dec 6.7 16:34:37 10° S 16:38:02 73° WSW 16:41:29 10° NNW visible
